Wind_Speed
29 28 26 23 21 17 15 13 12 12 12 10 8 7 5 4 3 3 2 3 3 4 4 6 6 6 5 4 3 2 2 1 0 2 3 4 6 7 9 12 14 15 16
33 30 28 24 23 20 16 15 13 13 13 11 10 8 6 4 4 4 3 3 4 4 5 5 6 7 6 5 4 3 2 2 1 3 4 5 7 8 10 13 14 15 15
34 30 28 26 24 21 19 17 15 14 14 14 12 9 7 5 5 4 3 4 5 5 6 6 6 7 7 5 4 3 3 3 3 3 3 5 7 9 12 13 14 15 14
36 34 32 29 26 24 22 19 17 15 15 15 13 11 9 8 7 5 4 5 5 5 7 7 7 7 7 5 4 3 4 3 3 3 4 6 8 11 12 13 14 15 14
38 35 33 31 28 26 24 21 19 18 16 16 15 13 11 10 9 8 6 6 6 6 7 8 7 7 7 5 5 4 3 3 3 3 4 7 9 11 12 13 14 14 14
40 38 36 33 29 28 26 24 22 20 19 18 17 16 14 12 11 10 8 7 7 7 8 8 8 7 7 6 5 5 4 4 4 4 5 7 9 11 12 13 13 14 14
45 40 37 35 33 31 28 26 24 23 22 21 19 18 16 15 14 12 11 9 9 8 8 9 9 8 7 6 5 5 5 5 5 5 6 7 9 11 11 12 12 13 14
49 46 42 39 36 33 31 29 27 25 24 23 22 20 19 17 16 14 13 11 11 10 10 10 10 9 8 7 6 6 7 6 6 6 6 7 9 11 11 11 12 14 15
50 48 45 42 40 36 34 32 29 27 26 25 25 23 21 20 18 17 15 14 14 13 12 12 12 10 9 9 8 8 8 8 8 8 8 9 10 11 12 12 13 15 15
56 52 48 46 44 40 37 34 32 30 29 27 26 25 23 22 20 19 17 16 15 14 14 13 13 12 11 10 10 10 10 10 10 10 10 10 12 12 13 13 15 16 18
62 57 53 49 45 42 38 36 34 33 32 31 28 27 25 24 21 20 18 16 16 16 16 15 14 14 13 12 12 12 11 11 12 12 12 13 14 15 15 16 17 18 19
63 59 55 52 48 44 41 39 37 35 34 32 31 29 27 25 23 21 20 17 17 17 17 17 16 16 14 14 14 13 13 13 13 14 15 16 16 17 17 18 20 20 21
62 55 54 54 49 46 44 42 39 36 34 33 33 32 30 28 24 22 21 20 19 19 18 18 17 18 17 16 16 15 15 15 15 16 17 18 18 19 19 20 22 23 24
53 55 55 53 48 46 45 43 41 39 37 36 35 33 31 30 26 24 24 23 22 22 20 20 20 19 20 18 17 17 17 18 18 19 20 20 20 21 22 22 23 24 26
53 60 57 53 49 48 47 45 43 42 40 38 36 35 34 31 28 27 27 26 25 25 24 23 22 22 21 21 20 20 20 21 22 22 23 22 23 23 24 24 25 26 28
38 56 54 50 51 55 52 49 44 45 43 39 39 38 36 33 30 30 28 28 26 26 26 26 25 25 25 25 24 23 24 24 25 26 26 26 26 27 26 27 27 27 30
27 39 55 54 49 54 59 52 45 44 45 45 45 42 40 36 34 34 32 31 28 27 28 28 28 28 28 29 28 27 28 29 28 29 30 30 30 30 31 30 31 29 30
27 28 40 51 45 42 44 49 45 47 48 47 50 46 41 35 39 34 33 31 29 30 29 30 31 32 31 32 31 31 31 31 32 31 32 32 33 33 34 34 34 33 31
21 30 46 42 39 25 29 40 46 47 47 53 53 48 44 37 37 34 34 32 30 31 32 32 34 34 34 35 33 33 33 35 35 36 34 34 35 36 37 37 35 36 36
23 34 37 30 19 17 22 29 39 47 48 48 49 47 46 38 33 36 35 34 34 33 33 34 36 35 36 35 36 36 35 37 37 39 40 38 38 38 38 38 36 37 39
30 27 30 10 16 14 14 20 34 43 42 44 41 42 39 37 36 40 40 41 38 35 37 35 34 36 37 38 38 38 38 39 39 40 41 42 42 41 41 42 41 43 39
24 22 15 13 12 12 9 17 33 44 36 49 43 38 34 33 34 37 40 41 39 37 36 36 38 36 37 38 37 39 41 41 42 42 42 40 40 39 40 39 39 41 46
26 23 25 22 20 16 20 19 15 17 20 23 47 44 43 36 36 33 41 42 39 38 37 35 35 30 28 32 35 37 38 40 41 40 40 39 41 42 43 44 46 47 47
22 24 25 23 17 17 20 25 18 11 18 15 19 29 35 43 40 38 37 31 36 40 41 43 43 43 41 36 32 36 38 36 38 39 42 44 47 46 46 47 48 51 50
27 26 21 20 22 23 22 21 19 21 19 20 22 22 19 24 33 27 32 36 30 30 29 33 47 49 42 34 35 34 39 41 42 38 39 43 42 44 46 49 52 49 48
28 29 30 27 26 25 28 28 24 24 22 23 27 26 24 26 25 28 31 31 33 38 40 35 38 31 30 28 35 38 41 44 46 49 48 46 47 47 48 48 50 48 47
Wind_Direction
218 221 221 224 229 227 222 225 223 218 222 216 209 205 199 206 232 257 272 289 305 315 333 336 338 341 331 333 333 312 252 226 315 354 351 359 357 360 2 360 359 359 356
220 219 222 223 229 229 221 221 225 224 224 224 216 211 204 205 223 250 273 294 302 315 320 324 329 331 325 325 322 310 273 268 327 340 347 351 348 351 352 353 355 355 356
221 220 222 224 225 227 226 222 225 225 224 224 222 216 206 209 227 245 276 292 300 306 306 309 319 321 318 315 316 305 288 286 310 323 339 343 339 343 344 350 353 354 353
222 223 221 220 223 226 227 224 224 227 227 226 223 222 212 211 221 228 255 276 288 299 299 303 306 311 308 309 303 295 285 291 300 314 323 330 338 341 344 348 350 352 353
222 224 224 223 221 225 227 226 225 225 228 229 226 226 220 217 224 227 238 258 279 292 296 298 300 305 301 299 297 291 282 282 289 297 318 330 336 338 342 345 347 350 354
218 220 223 223 222 224 227 227 225 226 226 228 226 229 227 224 228 231 241 252 265 277 284 290 294 294 294 297 295 282 270 272 285 306 323 329 331 335 337 340 344 349 353
217 217 220 222 224 222 226 228 227 225 226 227 226 228 229 230 231 234 239 246 256 263 270 280 284 284 287 288 281 271 268 272 285 294 306 316 325 327 330 335 339 344 348
218 221 220 223 224 223 226 228 228 226 227 227 228 230 232 232 235 235 239 241 247 253 260 264 271 276 277 276 270 263 263 268 275 282 293 305 316 319 323 328 334 337 340
219 221 221 222 223 226 227 227 230 229 228 229 230 230 231 233 236 238 241 245 249 253 258 262 266 270 274 275 267 260 262 269 270 272 282 291 303 308 314 321 326 329 329
220 220 222 222 223 225 224 227 229 231 232 231 231 233 233 234 235 240 241 247 253 258 261 263 264 265 263 260 256 257 262 265 266 270 274 282 292 299 305 312 313 320 324
217 216 220 220 222 222 224 227 230 233 234 233 232 233 236 234 236 239 242 247 251 256 259 260 262 260 260 255 252 252 256 260 264 267 273 280 288 292 297 303 309 315 316
214 216 216 220 220 222 226 228 231 231 234 233 234 233 234 233 235 239 242 246 252 254 257 260 262 259 258 259 258 254 254 256 262 268 273 279 285 289 293 298 303 307 310
209 215 218 218 218 221 225 226 226 227 231 233 232 233 232 232 232 236 241 246 250 253 255 258 260 261 258 257 258 259 258 258 262 268 275 280 284 286 288 293 298 302 307
203 210 214 218 219 223 226 224 223 223 226 231 229 230 229 229 228 232 238 244 248 251 250 251 255 256 258 256 257 259 263 268 270 273 276 281 284 286 288 290 292 298 301
212 210 212 215 214 218 220 219 221 223 224 228 227 229 230 231 232 237 241 244 246 249 249 249 251 255 257 259 259 261 264 266 269 272 277 280 283 284 285 287 291 295 298
203 216 209 210 214 214 207 212 215 225 229 229 230 228 229 230 234 240 241 245 245 246 248 250 249 252 255 258 260 262 264 267 270 273 274 277 280 282 286 288 290 295 295
192 211 218 212 219 217 214 208 209 220 226 237 230 226 227 230 236 240 243 244 245 250 251 251 253 254 256 256 258 260 263 265 268 272 276 279 280 283 284 285 290 291 291
191 193 216 216 216 217 213 212 206 217 231 238 231 225 224 228 243 239 243 244 247 249 253 256 256 257 258 260 259 260 264 267 268 270 273 277 280 282 284 286 288 290 291
180 192 196 205 192 199 213 213 216 219 225 235 233 229 230 233 242 243 248 249 249 253 256 258 260 261 262 262 263 263 264 267 269 270 270 273 276 279 281 284 286 288 290
196 195 200 193 207 203 211 222 225 231 230 231 238 238 238 239 240 248 248 253 257 255 258 258 260 263 263 264 265 266 266 268 269 271 274 275 276 278 280 283 285 286 290
214 205 206 216 219 219 201 227 219 228 233 231 233 242 245 244 247 249 251 252 254 255 258 260 264 266 267 266 265 268 269 266 267 269 273 276 279 281 282 283 284 286 290
206 221 231 219 233 199 185 207 195 216 225 232 237 238 242 238 248 248 250 253 256 260 264 266 265 266 267 269 269 268 266 267 266 267 270 275 280 282 284 285 286 291 295
220 209 227 206 217 243 257 236 218 211 226 239 230 234 236 242 247 252 249 252 256 258 261 261 260 253 255 260 265 266 265 263 264 268 270 274 277 279 281 285 289 290 292
215 215 212 228 234 248 235 242 238 251 241 251 241 230 231 239 238 252 247 251 254 252 258 261 255 256 259 259 270 270 270 264 262 262 269 277 282 283 284 284 286 287 291
246 233 237 242 236 243 255 260 256 253 267 285 272 257 269 248 245 249 258 251 257 256 261 250 265 259 264 262 265 265 266 263 269 268 277 283 283 284 283 282 284 287 285
251 253 257 254 247 248 254 263 271 277 265 281 290 292 273 280 269 272 252 244 255 264 260 252 262 269 257 265 267 272 273 270 271 273 280 288 286 286 287 288 289 286 286
Height
5874 5877 5879 5881 5884 5886 5887 5889 5889 5891 5892 5892 5892 5892 5892 5893 5894 5895 5895 5896 5897 5897 5897 5896 5896 5896 5896 5896 5896 5896 5895 5895 5895 5895 5894 5894 5893 5892 5891 5890 5888 5887 5885
5870 5873 5876 5878 5880 5883 5885 5886 5888 5889 5890 5890 5890 5891 5891 5892 5893 5893 5894 5895 5896 5896 5896 5895 5895 5895 5895 5895 5895 5895 5895 5895 5895 5894 5894 5893 5893 5892 5891 5889 5888 5886 5884
5866 5870 5872 5875 5877 5880 5882 5883 5885 5886 5887 5888 5888 5889 5890 5890 5891 5892 5893 5894 5894 5895 5895 5894 5894 5894 5894 5894 5894 5894 5894 5894 5894 5893 5893 5893 5892 5891 5890 5889 5887 5885 5883
5862 5865 5868 5871 5874 5876 5878 5880 5882 5884 5885 5886 5886 5887 5887 5889 5889 5890 5891 5892 5893 5893 5894 5893 5893 5893 5893 5893 5893 5893 5893 5893 5892 5892 5892 5892 5891 5891 5890 5888 5886 5884 5882
5857 5860 5864 5867 5869 5872 5875 5878 5880 5881 5883 5884 5884 5885 5885 5886 5887 5888 5889 5890 5891 5892 5892 5892 5892 5892 5892 5892 5892 5892 5892 5892 5891 5891 5891 5891 5890 5890 5889 5887 5885 5883 5881
5850 5854 5859 5863 5865 5868 5872 5874 5876 5878 5880 5882 5882 5883 5884 5884 5885 5886 5887 5888 5889 5890 5890 5891 5891 5891 5891 5891 5891 5891 5891 5891 5891 5891 5890 5890 5889 5888 5888 5886 5884 5882 5879
5844 5848 5853 5858 5861 5863 5867 5870 5873 5875 5877 5878 5880 5880 5881 5883 5883 5884 5885 5886 5887 5887 5888 5889 5889 5889 5889 5889 5889 5890 5890 5889 5889 5889 5889 5888 5888 5887 5885 5884 5882 5880 5878
5838 5844 5847 5852 5856 5859 5862 5866 5868 5870 5873 5875 5876 5877 5878 5880 5881 5881 5882 5883 5884 5884 5885 5886 5886 5887 5887 5887 5887 5887 5888 5888 5888 5887 5887 5887 5886 5885 5884 5882 5881 5879 5877
5831 5837 5840 5845 5849 5854 5857 5860 5864 5867 5869 5871 5873 5874 5875 5876 5878 5879 5879 5880 5881 5882 5883 5883 5884 5884 5884 5885 5885 5885 5885 5885 5885 5885 5885 5885 5884 5883 5882 5881 5879 5877 5875
5822 5828 5833 5837 5842 5847 5851 5855 5859 5862 5865 5867 5869 5871 5872 5873 5874 5876 5876 5877 5879 5880 5880 5880 5881 5881 5882 5882 5882 5882 5882 5883 5883 5883 5882 5882 5881 5880 5880 5878 5877 5875 5873
5808 5817 5823 5829 5835 5841 5845 5850 5854 5857 5860 5863 5865 5867 5868 5869 5870 5872 5873 5874 5875 5876 5877 5877 5877 5877 5878 5879 5879 5879 5880 5880 5880 5880 5880 5879 5879 5878 5877 5876 5874 5872 5870
5799 5808 5814 5820 5827 5834 5839 5844 5848 5852 5856 5858 5861 5862 5863 5865 5866 5868 5870 5871 5871 5873 5874 5874 5875 5875 5875 5875 5876 5877 5877 5876 5876 5876 5876 5876 5876 5875 5874 5873 5871 5869 5867
5790 5801 5807 5814 5819 5826 5832 5836 5842 5846 5851 5853 5855 5857 5859 5860 5861 5863 5865 5866 5867 5869 5870 5871 5871 5872 5872 5872 5872 5873 5874 5873 5873 5872 5872 5872 5872 5871 5870 5868 5867 5865 5863
5785 5793 5800 5807 5813 5820 5825 5830 5835 5840 5844 5847 5849 5852 5854 5855 5856 5857 5859 5860 5862 5864 5865 5866 5867 5868 5869 5869 5869 5868 5869 5870 5870 5869 5868 5868 5867 5866 5865 5864 5862 5860 5858
5777 5784 5790 5797 5805 5813 5819 5824 5829 5834 5837 5841 5844 5847 5849 5851 5852 5853 5855 5856 5856 5858 5860 5860 5861 5863 5864 5865 5865 5864 5864 5864 5864 5863 5863 5863 5863 5862 5860 5858 5857 5856 5853
5773 5778 5785 5791 5797 5803 5809 5815 5822 5828 5832 5835 5838 5841 5844 5846 5847 5849 5850 5851 5852 5852 5853 5854 5854 5856 5857 5859 5859 5859 5859 5859 5859 5858 5857 5857 5857 5857 5856 5854 5853 5852 5848
5769 5773 5781 5788 5791 5795 5800 5806 5813 5821 5826 5829 5832 5835 5836 5839 5841 5843 5844 5845 5846 5848 5848 5848 5849 5849 5850 5851 5853 5853 5853 5852 5852 5852 5852 5851 5850 5849 5849 5847 5846 5846 5843
5765 5769 5775 5785 5788 5791 5795 5798 5805 5814 5820 5823 5826 5827 5829 5832 5836 5836 5838 5839 5840 5840 5841 5842 5842 5842 5843 5844 5844 5845 5845 5846 5845 5844 5844 5843 5842 5841 5840 5839 5838 5837 5836
5761 5765 5776 5783 5785 5788 5794 5796 5800 5807 5813 5815 5819 5821 5823 5826 5830 5832 5834 5833 5834 5834 5835 5835 5836 5836 5836 5837 5837 5838 5837 5839 5838 5836 5834 5834 5833 5833 5833 5831 5830 5829 5827
5759 5765 5771 5777 5782 5786 5789 5790 5795 5801 5805 5810 5813 5814 5817 5819 5823 5826 5827 5828 5828 5828 5827 5827 5828 5829 5829 5829 5829 5830 5829 5831 5830 5828 5828 5827 5826 5825 5824 5823 5821 5820 5819
5755 5764 5771 5771 5778 5780 5779 5785 5789 5797 5800 5803 5806 5807 5810 5813 5816 5818 5819 5819 5821 5820 5819 5819 5819 5821 5821 5821 5819 5820 5822 5822 5820 5819 5819 5818 5818 5817 5815 5815 5813 5812 5810
5751 5759 5762 5769 5773 5775 5780 5784 5785 5790 5792 5796 5797 5802 5803 5805 5809 5810 5810 5811 5811 5812 5812 5810 5811 5812 5811 5810 5811 5811 5813 5812 5811 5811 5810 5809 5808 5807 5806 5804 5802 5800 5799
5747 5755 5762 5764 5765 5768 5775 5780 5780 5781 5787 5791 5791 5795 5798 5800 5802 5800 5802 5803 5804 5805 5805 5803 5801 5801 5801 5801 5802 5802 5802 5803 5802 5802 5801 5800 5800 5799 5797 5795 5793 5791 5788
5740 5748 5753 5757 5762 5766 5771 5774 5774 5777 5781 5784 5787 5789 5792 5793 5794 5791 5794 5794 5795 5797 5797 5791 5792 5791 5792 5792 5795 5795 5794 5794 5792 5795 5793 5792 5790 5789 5788 5786 5783 5781 5778
5734 5740 5747 5750 5754 5760 5761 5764 5767 5770 5773 5774 5778 5780 5781 5784 5785 5783 5785 5787 5787 5788 5788 5784 5784 5784 5784 5786 5787 5786 5785 5784 5783 5784 5787 5784 5782 5780 5777 5776 5773 5770 5766
5732 5738 5743 5749 5754 5757 5757 5760 5763 5765 5766 5768 5772 5773 5772 5773 5776 5776 5779 5779 5777 5778 5779 5779 5778 5778 5777 5776 5776 5777 5776 5775 5775 5773 5772 5771 5770 5768 5765 5763 5761 5758 5756